Location: Toronto
(43.6532°N, 79.3832°W)
Time: 11:02:26
(UTC-04:00)

ISS - Visible Passes

Search period start: 26 May 2019 00:00
Search period end: 05 June 2019 00:00
Orbit: 408 x 418 km, 51.6° (Epoch: 27 May)

Date Brightness Start Highest point End Pass type
(mag) Time Alt. Az. Time Alt. Az. Time Alt. Az.
26 May -1.0 01:15:50 10° WNW 01:16:21 14° WNW 01:16:21 14° WNW visible
26 May -1.5 22:49:53 10° NW 22:52:38 23° N 22:55:22 10° ENE visible
27 May -2.1 00:26:24 10° NW 00:28:26 33° NW 00:28:26 33° NW visible
27 May -1.3 22:00:21 10° NW 22:02:58 21° N 22:05:34 10° NE visible
27 May -2.8 23:37:00 10° NW 23:40:14 43° NNE 23:40:33 42° NE visible
28 May -2.2 22:47:35 10° NW 22:50:39 32° NNE 22:52:41 17° ENE visible
29 May -1.6 00:24:11 10° WNW 00:25:30 21° WNW 00:25:30 21° WNW visible
29 May -1.8 21:58:09 10° NW 22:01:00 25° NNE 22:03:53 10° ENE visible
29 May -3.6 23:34:38 10° WNW 23:37:39 69° WNW 23:37:39 69° WNW visible
30 May -3.4 22:45:11 10° NW 22:48:30 58° NNE 22:49:50 31° E visible
31 May -0.9 00:22:21 10° W 00:22:38 11° W 00:22:38 11° W visible
31 May -2.7 21:55:44 10° NW 21:58:55 39° NNE 22:02:01 10° E visible
31 May -2.5 23:32:28 10° WNW 23:34:50 31° WSW 23:34:50 31° WSW visible
01 Jun -3.7 22:42:50 10° WNW 22:46:08 61° SW 22:47:04 40° SSE visible
02 Jun -3.7 21:53:16 10° WNW 21:56:37 80° NNE 21:59:20 15° ESE visible
02 Jun -1.3 23:31:01 10° W 23:32:09 13° WSW 23:32:09 13° WSW visible
03 Jun -2.2 22:40:47 10° W 22:43:32 24° SW 22:44:27 21° SSW visible
04 Jun -3.0 21:50:57 10° WNW 21:54:07 41° SW 21:56:48 13° SSE visible
